#timestamp,LO_Frequency,Hit,StdDev 
1593302415.0,286046998.3,N
1593302415.9,286046998.3,N
1593302435.8,286046996.5,Y
1593302455.6,286046998.6,P
1593302475.4,286047001.0,N
1593302495.3,286047000.8,N
1593302515.1,286047000.7,N
1593302535.8,286046998.5,N
1593302555.7,286046998.6,N
1593302575.5,286046998.1,N
1593302595.4,286047000.5,N
1593302615.2,286047000.6,N
1593302635.0,286047000.3,N
1593302635.9,286047000.3,N
1593302655.8,286047000.7,N
1593302675.6,286046998.1,N
1593302695.5,286047000.5,N
1593302715.3,286047000.2,N
1593302735.1,286047000.2,N
1593302785.9,286047000.2,E
1593302795.8,286047000.0,N
1593302815.7,286047001.0,P
1593302835.5,286046998.1,P
1593302855.4,286047000.4,N
1593302875.2,286047000.4,N
1593302895.0,286046998.5,N
1593302895.9,286046998.5,N
1593302915.8,286047000.0,N
1593302935.6,286046998.2,N
1593302955.4,286046998.7,N
1593302975.3,286046999.0,N
1593302995.1,286047000.4,N
1593303015.9,286046998.2,N
1593303035.7,286047001.2,N
1593303055.5,286047000.4,N
1593303075.4,286047000.0,N
1593303095.2,286046999.7,N
1593303115.1,286047002.3,N
1593303116.0,286047002.3,N
1593303135.8,286047002.5,N
1593303155.6,286047002.6,N
1593303175.5,286047002.4,N
1593303195.3,286047004.2,N
1593303215.1,286047001.5,N
1593303235.9,286047002.1,N
1593303255.7,286047002.8,N
1593303275.6,286047000.8,N
1593303295.4,286047001.9,N
1593303315.2,286047002.9,N
1593303335.1,286047004.1,N
1593303336.0,286047004.1,N
1593303355.8,286047004.3,N
1593303375.7,286047003.9,N
1593303395.5,286047004.3,N
1593303415.3,286047004.7,N
1593303435.2,286047004.9,N
1593303455.0,286047007.6,Y
1593303455.9,286047007.6,P
1593303475.8,286047001.5,N
1593303495.6,286047005.2,N
1593303515.4,286047003.8,N
1593303535.3,286047003.5,N
1593303555.1,286047000.1,N
1593303575.8,286047000.3,N
1593303595.7,286047002.4,N
1593303615.5,286047002.3,N
1593303635.4,286047000.0,N
1593303655.2,286046998.1,N
1593303675.0,286046998.1,N
1593303675.9,286046998.1,N
1593303695.8,286046998.5,N
1593303715.6,286047000.4,N
1593303735.4,286047000.4,N
1593303755.3,286047000.1,N
1593303775.1,286047002.3,N
1593303795.9,286047002.0,N
1593303815.7,286046998.4,N
1593303835.5,286046998.8,N
1593303855.4,286046999.9,N
1593303875.2,286046999.8,N
1593303895.1,286046999.1,N
1593303896.0,286046999.1,N
1593303915.8,286047001.1,N
1593303935.6,286046998.4,N
1593303955.5,286046999.3,N
1593303975.3,286046998.4,N
1593303995.2,286046998.8,N
1593304015.9,286047000.4,N
1593304035.7,286046998.2,N
1593304055.6,286046996.7,N
1593304075.4,286046997.4,N
1593304095.3,286046997.2,N
1593304115.1,286046999.5,N
1593304116.0,286046999.5,N
1593304135.8,286046999.1,N
1593304155.7,286046999.6,N
1593304175.5,286047002.2,N
1593304195.3,286047002.8,N
1593304215.2,286047000.4,N
1593304235.0,286047000.3,N
1593304235.9,286047000.3,N
1593304255.8,286046999.5,N
1593304275.6,286047001.8,N
1593304295.4,286046999.9,N
1593304315.3,286046999.2,N
1593304335.1,286047000.5,N
1593304355.9,286047000.8,N
1593304375.7,286046998.3,N
1593304395.5,286047002.6,N
1593304415.4,286047000.8,N
1593304435.2,286047001.9,N
1593304455.0,286047000.0,N
1593304456.0,286047000.0,N
1593304475.8,286047000.8,N
1593304495.6,286047000.8,N
1593304515.5,286046998.5,N
1593304535.3,286047000.4,N
1593304555.1,286047000.8,N
1593304575.9,286046997.4,N
1593304595.7,286046999.2,N
1593304615.6,286046998.5,N
1593304635.4,286046996.6,N
1593304655.2,286046999.3,N
1593304675.1,286046999.0,N
1593304676.0,286046999.0,N
1593304695.8,286046999.3,N
1593304715.7,286046997.0,N
1593304735.5,286046997.7,N
1593304755.3,286046997.4,N
1593304775.2,286046995.2,Y
1593304795.0,286046997.9,P
1593304795.9,286046997.9,N
1593304815.8,286046995.5,P
1593304835.6,286046997.3,N
1593304855.4,286046996.5,N
1593304875.3,286046999.6,N
1593304895.1,286046998.8,N
1593304915.9,286047000.7,N
1593304935.7,286046999.2,N
1593304955.5,286046998.7,N
1593304975.4,286046997.2,N
1593304995.2,286046995.4,Y
1593305015.0,286046996.6,P
1593305015.9,286046996.6,P
1593305035.8,286046999.6,N
1593305055.6,286046997.0,N
1593305075.5,286046995.0,Y
1593305095.3,286047000.4,P
1593305115.1,286047000.6,N
1593305135.9,286047000.3,N
1593305155.7,286046999.9,N
1593305175.6,286047002.6,N
1593305195.4,286047004.0,N
1593305215.2,286046999.8,N
1593305235.1,286047002.2,N
1593305236.0,286047002.2,N
1593305255.8,286047001.4,N
1593305275.7,286047002.2,N
1593305295.5,286047002.2,N
1593305315.3,286047001.6,N
1593305335.2,286047004.2,N
1593305355.0,286047000.4,N
1593305355.9,286047000.4,N
1593305375.7,286047001.0,N
1593305395.6,286047000.2,N
1593305415.4,286047002.3,N
1593305435.3,286047002.4,N
1593305455.1,286047003.8,N
1593305475.8,286047003.8,N
1593305495.7,286047004.1,N
1593305515.5,286046999.8,N
1593305535.4,286047002.6,N
1593305555.2,286047001.9,N
1593305575.0,286047001.5,N
1593305575.9,286047001.5,N
1593305595.8,286046999.7,N
1593305615.6,286047000.4,N
1593305635.5,286046999.9,N
1593305655.3,286047002.8,N
1593305675.1,286047004.4,Y
1593305695.9,286047001.0,P
1593305715.7,286046998.9,P
1593305735.6,286046996.6,N
1593305755.4,286046998.1,N
1593305775.2,286047001.2,N
1593305795.1,286047000.4,N
1593305796.0,286047000.4,N
1593305815.8,286047001.0,N
1593305835.6,286046998.6,N
1593305855.5,286046998.6,N
1593305875.3,286047000.5,N
1593305895.2,286047000.3,N
1593305915.9,286047001.0,N
1593305935.7,286047000.8,N
1593305955.6,286047001.2,N
1593305975.4,286047000.0,N
1593305995.3,286047000.3,N
